Météo par heure à Abadzekhskaya

Ce jour, 2 Décembre, Mercredi

Heure Température Précipitation Vent Pression Humidité
00:00 +4°C° 0 mm 1 m/s 715 mmHg 69%
01:00 +5°C° 0 mm 1 m/s 715 mmHg 69%
02:00 +5°C° 0 mm 1 m/s 715 mmHg 68%
03:00 +5°C° 0 mm 1 m/s 715 mmHg 66%
04:00 +5°C° 0 mm 1 m/s 715 mmHg 66%
05:00 +6°C° 0 mm 1 m/s 715 mmHg 66%
06:00 +6°C° 0 mm 1 m/s 715 mmHg 66%
07:00 +6°C° 0 mm 1 m/s 716 mmHg 65%
08:00 +7°C° 0 mm 1 m/s 716 mmHg 65%
09:00 +7°C° 0 mm 1 m/s 716 mmHg 65%
10:00 +8°C° 0 mm 1 m/s 716 mmHg 60%
11:00 +10°C° 0 mm 1 m/s 716 mmHg 56%
12:00 +11°C° 0 mm 1 m/s 717 mmHg 52%
13:00 +11°C° 0 mm 1 m/s 716 mmHg 53%
14:00 +11°C° 0 mm 1 m/s 716 mmHg 54%
15:00 +11°C° 0 mm 1 m/s 716 mmHg 55%
16:00 +9°C° 0 mm 1 m/s 716 mmHg 60%
17:00 +8°C° 0 mm 1 m/s 716 mmHg 64%
18:00 +7°C° 0 mm 1 m/s 716 mmHg 69%
19:00 +7°C° 0 mm 1 m/s 716 mmHg 70%
20:00 +7°C° 0 mm 1 m/s 716 mmHg 71%
21:00 +7°C° 0 mm 1 m/s 716 mmHg 72%
22:00 +6°C° 0 mm 1 m/s 716 mmHg 73%
23:00 +6°C° 0 mm 1 m/s 717 mmHg 74%

Demain, 3 Décembre, Jeudi

Heure Température Précipitation Vent Pression Humidité
00:00 +6°C° 0 mm 1 m/s 717 mmHg 75%
01:00 +6°C° 0 mm 1 m/s 717 mmHg 75%
02:00 +6°C° 0 mm 1 m/s 717 mmHg 75%
03:00 +6°C° 0 mm 1 m/s 717 mmHg 76%
04:00 +6°C° 0 mm 1 m/s 717 mmHg 76%
05:00 +6°C° 0 mm 1 m/s 717 mmHg 77%
06:00 +6°C° 0 mm 1 m/s 717 mmHg 78%
07:00 +7°C° 0 mm 1 m/s 717 mmHg 77%
08:00 +7°C° 0 mm 1 m/s 717 mmHg 75%
09:00 +7°C° 0 mm 1 m/s 717 mmHg 74%
10:00 +9°C° 0 mm 1 m/s 717 mmHg 68%
11:00 +10°C° 0 mm 1 m/s 717 mmHg 63%
12:00 +12°C° 0 mm 1 m/s 717 mmHg 57%
13:00 +12°C° 0 mm 1 m/s 717 mmHg 58%
14:00 +11°C° 0 mm 1 m/s 717 mmHg 59%
15:00 +11°C° 0 mm 1 m/s 717 mmHg 60%
16:00 +10°C° 0 mm 1 m/s 717 mmHg 66%
17:00 +8°C° 0 mm 1 m/s 717 mmHg 71%
18:00 +7°C° 0 mm 1 m/s 717 mmHg 77%
19:00 +7°C° 0 mm 1 m/s 716 mmHg 78%
20:00 +7°C° 0 mm 1 m/s 716 mmHg 78%
21:00 +6°C° 0 mm 1 m/s 716 mmHg 79%
22:00 +6°C° 0 mm 1 m/s 716 mmHg 78%
23:00 +6°C° 0 mm 1 m/s 716 mmHg 78%

Après-demain, 4 Décembre, Vendredi

Heure Température Précipitation Vent Pression Humidité
00:00 +6°C° 0 mm 1 m/s 716 mmHg 78%
01:00 +6°C° 0 mm 1 m/s 716 mmHg 78%
02:00 +6°C° 0 mm 1 m/s 716 mmHg 78%
03:00 +6°C° 0 mm 1 m/s 716 mmHg 78%
04:00 +6°C° 0 mm 1 m/s 716 mmHg 77%
05:00 +5°C° 0 mm 1 m/s 716 mmHg 77%
06:00 +5°C° 0 mm 1 m/s 716 mmHg 77%
07:00 +6°C° 0 mm 1 m/s 716 mmHg 74%
08:00 +6°C° 0 mm 1 m/s 716 mmHg 72%
09:00 +7°C° 0 mm 1 m/s 716 mmHg 70%
10:00 +9°C° 0 mm 1 m/s 716 mmHg 64%
11:00 +10°C° 0 mm 1 m/s 716 mmHg 58%
12:00 +12°C° 0 mm 1 m/s 716 mmHg 51%
13:00 +12°C° 0 mm 1 m/s 716 mmHg 53%
14:00 +12°C° 0 mm 2 m/s 716 mmHg 54%
15:00 +12°C° 0 mm 2 m/s 716 mmHg 55%
16:00 +9°C° 0 mm 2 m/s 716 mmHg 61%
17:00 +7°C° 0 mm 2 m/s 715 mmHg 68%
18:00 +7°C° 0 mm 1 m/s 715 mmHg 74%
19:00 +6°C° 0 mm 1 m/s 715 mmHg 75%
20:00 +6°C° 0 mm 1 m/s 715 mmHg 76%
21:00 +6°C° 0 mm 1 m/s 715 mmHg 76%
22:00 +6°C° 0 mm 1 m/s 715 mmHg 76%
23:00 +5°C° 0 mm 1 m/s 715 mmHg 76%

5 Décembre, Samedi

Heure Température Précipitation Vent Pression Humidité
00:00 +5°C° 0 mm 1 m/s 715 mmHg 76%
01:00 +5°C° 0 mm 1 m/s 715 mmHg 76%
02:00 +5°C° 0 mm 1 m/s 715 mmHg 76%
03:00 +5°C° 0 mm 1 m/s 715 mmHg 76%
04:00 +4°C° 0 mm 1 m/s 715 mmHg 76%
05:00 +4°C° 0 mm 1 m/s 715 mmHg 76%
06:00 +4°C° 0 mm 1 m/s 715 mmHg 76%
07:00 +4°C° 0 mm 1 m/s 715 mmHg 74%
08:00 +5°C° 0 mm 1 m/s 715 mmHg 72%
09:00 +5°C° 0 mm 1 m/s 715 mmHg 69%
10:00 +7°C° 0 mm 1 m/s 716 mmHg 64%
11:00 +8°C° 0 mm 1 m/s 716 mmHg 59%
12:00 +10°C° 0 mm 1 m/s 716 mmHg 54%
13:00 +9°C° 0 mm 2 m/s 715 mmHg 56%
14:00 +9°C° 0 mm 2 m/s 715 mmHg 58%
15:00 +8°C° 0 mm 2 m/s 715 mmHg 60%
16:00 +7°C° 0 mm 2 m/s 715 mmHg 66%
17:00 +5°C° 0 mm 2 m/s 715 mmHg 72%
18:00 +4°C° 0 mm 2 m/s 715 mmHg 78%
19:00 +4°C° 0 mm 2 m/s 715 mmHg 79%
20:00 +3°C° 0 mm 2 m/s 715 mmHg 80%
21:00 +3°C° 0 mm 2 m/s 715 mmHg 81%
22:00 +4°C° 0 mm 1 m/s 715 mmHg 81%
23:00 +3°C° 0 mm 1 m/s 715 mmHg 82%

6 Décembre, Dimanche

Heure Température Précipitation Vent Pression Humidité
00:00 +3°C° 0 mm 1 m/s 715 mmHg 83%
01:00 +3°C° 0 mm 1 m/s 715 mmHg 82%
02:00 +3°C° 0 mm 1 m/s 715 mmHg 82%
03:00 +3°C° 0 mm 1 m/s 715 mmHg 82%
04:00 +2°C° 0 mm 1 m/s 715 mmHg 82%
05:00 +2°C° 0 mm 1 m/s 715 mmHg 83%
06:00 +2°C° 0 mm 1 m/s 715 mmHg 83%
07:00 +2°C° 0 mm 1 m/s 715 mmHg 80%
08:00 +3°C° 0 mm 1 m/s 715 mmHg 78%
09:00 +4°C° 0 mm 1 m/s 715 mmHg 76%
10:00 +4°C° 0 mm 2 m/s 715 mmHg 70%
11:00 +5°C° 0 mm 2 m/s 715 mmHg 64%
12:00 +7°C° 0 mm 2 m/s 715 mmHg 59%
13:00 +7°C° 0 mm 2 m/s 715 mmHg 59%
14:00 +7°C° 0 mm 2 m/s 715 mmHg 60%
15:00 +7°C° 0 mm 2 m/s 715 mmHg 61%
16:00 +5°C° 0 mm 2 m/s 714 mmHg 68%
17:00 +4°C° 0 mm 2 m/s 714 mmHg 74%
18:00 +3°C° 0 mm 2 m/s 714 mmHg 80%
19:00 +2°C° 0 mm 2 m/s 714 mmHg 81%
20:00 +2°C° 0 mm 2 m/s 715 mmHg 82%
21:00 +2°C° 0 mm 2 m/s 715 mmHg 83%
22:00 +2°C° 0 mm 2 m/s 715 mmHg 82%
23:00 +3°C° 0 mm 1 m/s 715 mmHg 81%

7 Décembre, Lundi

Heure Température Précipitation Vent Pression Humidité
00:00 +2°C° 0 mm 1 m/s 715 mmHg 81%
01:00 +2°C° 0 mm 1 m/s 715 mmHg 80%
02:00 +2°C° 0 mm 1 m/s 715 mmHg 79%
03:00 +2°C° 0 mm 1 m/s 715 mmHg 77%
04:00 +2°C° 0 mm 1 m/s 715 mmHg 76%
05:00 +1°C° 0 mm 2 m/s 715 mmHg 74%
06:00 +1°C° 0 mm 2 m/s 715 mmHg 73%
07:00 +2°C° 0 mm 2 m/s 715 mmHg 70%
08:00 +2°C° 0 mm 2 m/s 716 mmHg 67%
09:00 +3°C° 0 mm 2 m/s 716 mmHg 63%
10:00 +4°C° 0 mm 2 m/s 716 mmHg 58%
11:00 +6°C° 0 mm 2 m/s 716 mmHg 53%
12:00 +8°C° 0 mm 2 m/s 716 mmHg 48%
13:00 +7°C° 0 mm 3 m/s 716 mmHg 50%
14:00 +7°C° 0 mm 3 m/s 716 mmHg 52%
15:00 +7°C° 0 mm 3 m/s 716 mmHg 54%
16:00 +5°C° 0 mm 3 m/s 716 mmHg 60%
17:00 +3°C° 0 mm 3 m/s 716 mmHg 66%
18:00 +2°C° 0 mm 3 m/s 715 mmHg 72%
19:00 +1°C° 0 mm 3 m/s 715 mmHg 73%
20:00 +2°C° 0 mm 2 m/s 715 mmHg 73%
21:00 +2°C° 0 mm 2 m/s 715 mmHg 74%
22:00 +2°C° 0 mm 2 m/s 715 mmHg 74%
23:00 +1°C° 0 mm 2 m/s 715 mmHg 74%
Voir plus

Nous avons besoin de votre consentement

Meteoprog et ses fournisseurs de services peuvent stocker et accéder à des données personnelles telles que des cookies, des identifiants d'appareils ou d'autres technologies similaires sur votre appareil et traiter ces données pour personnaliser le contenu et les publicités, ainsi que pour fournir des fonctionnalités de médias sociaux et analyser le trafic.

  • Stocker et/ou accéder à des informations sur votre appareil

    Des cookies, des identifiants d'appareils ou d'autres informations peuvent être stockés ou accessibles sur votre appareil aux fins indiquées ci-dessus.

  • Annonces et contenus personnalisés, mesure des annonces et des contenus, connaissance de l'audience et développement de produits

    Les annonces et le contenu peuvent être personnalisés en fonction d'un profil. D'autres données peuvent être ajoutées pour mieux personnaliser les annonces et le contenu. Les performances des publicités et du contenu peuvent être mesurées. Il est possible d'obtenir des informations sur le public qui a vu les publicités et le contenu. Ces données peuvent être utilisées pour développer ou améliorer l'expérience de l'utilisateur, les systèmes et les logiciels.

En cliquant sur "J'accepte", vous autorisez l'utilisation de cookies, des identifiants d'appareils, des balises web ou d'autres technologies similaires. Vos paramètres peuvent être modifiés dans le navigateur de votre appareil.

Dans certains cas, des intérêts légitimes peuvent être invoqués plutôt qu'un consentement. Vous pouvez en savoir plus à ce sujet dans notre Politique de confidentialité et de cookies.